G6LTT Weather Reports


Display with metric or nautical units.
time (UTC)temp
F
wind
direction
speed
MPH
gust
MPH
rain 1hr
in
rain 24hr
in
rain mn
in
humidity
%
barometer
mb
20260507080003 53 158 0.0 4.0 0.00 0.00 0.00 70 1044.8
20260507075403 53 231 1.0 7.0 0.00 0.00 0.00 71 1045.0
20260507074503 53 166 1.0 4.0 0.00 0.00 0.00 71 1044.7
20260507073603 52 47 1.0 4.0 0.00 0.00 0.00 71 1044.9
20260507072703 52 147 2.0 4.0 0.00 0.00 0.00 74 1044.8
20260507071803 51 88 0.0 7.0 0.00 0.00 0.00 74 1044.7
20260507070903 52 145 0.0 2.0 0.00 0.00 0.00 73 1044.8
20260507070005 50 54 0.0 2.0 0.00 0.00 0.00 75 1044.7
20260507065614 50 69 0.0 2.0 0.00 0.00 0.00 76 1044.6
20260507064503 48 137 0.0 4.0 0.00 0.00 0.00 80 1044.7
20260507063603 48 39 0.0 2.0 0.00 0.00 0.00 82 1044.6
20260507062703 47 33 0.0 2.0 0.00 0.00 0.00 84 1044.6
20260507061803 47 52 0.0 2.0 0.00 0.00 0.00 86 1044.5
20260507061116 46 48 1.0 2.0 0.00 0.00 0.00 87 1044.5
20260507060003 46 41 0.0 2.0 0.00 0.00 0.00 88 1044.4
20260507055615 46 33 0.0 2.0 0.00 0.00 0.00 89 1044.5
20260507054503 45 52 0.0 2.0 0.00 0.00 0.00 89 1044.5
20260507053603 45 62 0.0 2.0 0.00 0.00 0.00 89 1044.3
20260507052703 46 55 0.0 4.0 0.00 0.00 0.00 89 1044.2
20260507051803 46 48 0.0 2.0 0.00 0.00 0.00 90 1044.2
20260507050903 45 65 2.0 2.0 0.00 0.00 0.00 90 1043.9
20260507050003 45 67 0.0 2.0 0.00 0.00 0.00 91 1043.9
20260507045403 45 0 0.0 0.0 0.00 0.00 0.00 91 1043.8
20260507044503 45 67 0.0 2.0 0.00 0.00 0.00 92 1043.8
20260507043603 45 67 0.0 2.0 0.00 0.00 0.00 92 1043.6
20260507042703 44 67 0.0 2.0 0.00 0.00 0.00 92 1043.8
20260507041803 44 0 0.0 0.0 0.00 0.00 0.00 92 1043.8
20260507040903 44 63 0.0 2.0 0.00 0.00 0.00 92 1043.8
20260507040214 44 55 0.0 2.0 0.00 0.00 0.00 92 1043.9
20260507035616 44 45 0.0 2.0 0.00 0.00 0.00 92 1043.7
20260507034503 44 45 0.0 2.0 0.00 0.00 0.00 91 1044.1
20260507033816 44 0 0.0 0.0 0.00 0.00 0.00 91 1043.5
20260507032703 45 0 0.0 0.0 0.00 0.00 0.00 91 1043.7
20260507031803 45 0 0.0 0.0 0.00 0.00 0.00 91 1043.8
20260507030903 44 0 0.0 0.0 0.00 0.00 0.00 91 1043.7
20260507030215 45 0 0.0 0.0 0.00 0.00 0.00 91 1043.8
20260507025403 45 0 0.0 0.0 0.00 0.00 0.00 91 1044.1
20260507024503 44 58 0.0 2.0 0.00 0.00 0.00 91 1043.7
20260507023603 44 0 0.0 0.0 0.00 0.00 0.00 91 1043.7
20260507022703 44 67 0.0 2.0 0.00 0.00 0.00 91 1043.7
20260507021803 44 0 0.0 0.0 0.00 0.00 0.00 90 1043.7
20260507021113 45 0 0.0 0.0 0.00 0.00 0.00 90 1043.4
20260507020003 46 0 0.0 0.0 0.00 0.00 0.00 89 1043.7
20260507015403 46 0 0.0 0.0 0.00 0.00 0.00 89 1043.5
20260507014503 46 56 0.0 4.0 0.00 0.00 0.00 88 1043.6
20260507013603 46 32 1.0 4.0 0.00 0.00 0.00 87 1043.5
20260507012703 47 49 0.0 2.0 0.00 0.00 0.00 87 1043.5
20260507011803 47 38 1.0 2.0 0.00 0.00 0.00 87 1043.7
20260507010903 46 42 0.0 4.0 0.00 0.00 0.00 87 1043.6
20260507010003 46 36 0.0 4.0 0.00 0.00 0.00 87 1043.7
20260507005403 46 16 0.0 2.0 0.00 0.00 0.00 87 1043.4
20260507004503 46 4 0.0 4.0 0.00 0.00 0.00 87 1043.7
20260507003812 46 20 1.0 4.0 0.00 0.00 0.00 87 1043.5
20260507002703 46 344 0.0 2.0 0.00 0.00 0.00 87 1043.7
20260507001803 46 33 0.0 2.0 0.00 0.00 0.00 87 1043.5
20260507000903 46 67 0.0 2.0 0.00 0.00 0.00 88 1043.8
20260507000003 46 67 0.0 2.0 0.00 0.00 0.00 88 1043.7
20260506235403 46 67 0.0 2.0 0.00 0.00 0.00 87 1043.5
20260506234503 46 65 0.0 2.0 0.00 0.00 0.00 86 1043.6
20260506233603 46 56 1.0 4.0 0.00 0.00 0.00 86 1043.6
20260506232703 47 44 1.0 2.0 0.00 0.00 0.00 85 1043.2
20260506231803 47 22 0.0 2.0 0.00 0.00 0.00 85 1043.6
20260506231115 47 29 1.0 2.0 0.00 0.00 0.00 85 1043.4
20260506230213 47 348 0.0 2.0 0.00 0.00 0.00 84 1043.4
20260506225403 47 22 0.0 2.0 0.00 0.00 0.00 84 1043.4
20260506224503 47 326 0.0 2.0 0.00 0.00 0.00 83 1043.2
20260506223603 47 37 0.0 2.0 0.00 0.00 0.00 83 1043.4
20260506222703 48 40 1.0 4.0 0.00 0.00 0.00 82 1043.2
20260506221803 48 36 0.0 4.0 0.00 0.00 0.00 82 1043.2
20260506220903 48 17 0.0 4.0 0.00 0.00 0.00 81 1043.0
20260506220003 48 32 0.0 2.0 0.00 0.00 0.00 80 1043.4
20260506215403 48 318 0.0 4.0 0.00 0.00 0.00 80 1043.2
20260506214503 48 6 1.0 4.0 0.00 0.00 0.00 80 1043.4
20260506213814 48 9 0.0 6.0 0.00 0.00 0.00 79 1043.3
20260506212917 48 35 1.0 6.0 0.00 0.00 0.00 79 1043.2
20260506211803 48 34 0.0 4.0 0.00 0.00 0.00 78 1043.2
20260506211117 49 22 0.0 4.0 0.00 0.00 0.00 77 1043.2
20260506210003 49 26 0.0 4.0 0.00 0.00 0.00 77 1043.0
20260506205403 49 25 0.0 4.0 0.00 0.00 0.00 77 1043.0
20260506204503 49 53 1.0 4.0 0.00 0.00 0.00 76 1043.0
20260506203603 49 55 2.0 4.0 0.00 0.00 0.00 75 1043.0
20260506202703 50 27 0.0 4.0 0.00 0.00 0.00 73 1042.8
20260506201803 50 41 1.0 7.0 0.00 0.00 0.00 72 1042.9
20260506200903 50 42 0.0 6.0 0.00 0.00 0.00 71 1043.0
20260506195403 50 44 2.0 6.0 0.00 0.00 0.00 69 1042.7
20260506194503 51 43 2.0 6.0 0.00 0.00 0.00 69 1042.6
20260506193603 51 32 0.0 6.0 0.00 0.00 0.00 68 1042.6
20260506192918 51 36 1.0 4.0 0.00 0.00 0.00 68 1042.5
20260506191803 51 37 0.0 4.0 0.00 0.00 0.00 66 1042.6
20260506190908 52 48 1.0 4.0 0.00 0.00 0.00 65 1042.4
20260506190003 52 51 1.0 4.0 0.00 0.00 0.00 64 1042.4
20260506185403 52 43 2.0 6.0 0.00 0.00 0.00 64 1042.4
20260506184503 52 41 2.0 7.0 0.00 0.00 0.00 63 1042.1
20260506183816 52 41 1.0 6.0 0.00 0.00 0.00 62 1042.3
20260506182703 53 65 3.0 7.0 0.00 0.00 0.00 61 1042.1
20260506181803 53 57 0.0 8.0 0.00 0.00 0.00 61 1041.9
20260506180903 53 43 2.0 8.0 0.00 0.00 0.00 60 1041.9
20260506180216 53 35 1.0 8.0 0.00 0.00 0.00 60 1041.9
20260506175403 53 47 2.0 9.0 0.00 0.00 0.00 60 1041.8
20260506174503 54 56 1.0 9.0 0.00 0.00 0.00 60 1041.7
20260506173817 54 51 5.0 9.0 0.00 0.00 0.00 59 1041.6
20260506172703 54 41 1.0 9.0 0.00 0.00 0.00 59 1041.5
20260506171803 55 51 2.0 7.0 0.00 0.00 0.00 55 1041.5
20260506170903 56 24 4.0 7.0 0.00 0.00 0.00 53 1041.4
20260506170003 55 23 2.0 9.0 0.00 0.00 0.00 52 1041.3
20260506165403 55 3 2.0 9.0 0.00 0.00 0.00 54 1041.5
20260506164715 57 354 2.0 7.0 0.00 0.00 0.00 52 1041.4
20260506163603 56 10 2.0 6.0 0.00 0.00 0.00 53 1041.3
20260506162703 56 342 2.0 7.0 0.00 0.00 0.00 52 1041.5
20260506161803 56 353 2.0 6.0 0.00 0.00 0.00 52 1041.3
20260506160903 56 22 2.0 6.0 0.00 0.00 0.00 54 1041.4
20260506160003 56 17 2.0 4.0 0.00 0.00 0.00 54 1041.5
20260506155403 56 25 2.0 9.0 0.00 0.00 0.00 55 1041.7
20260506154503 56 355 2.0 7.0 0.00 0.00 0.00 54 1041.5
20260506153603 55 357 2.0 4.0 0.00 0.00 0.00 56 1041.5
20260506152703 55 31 1.0 6.0 0.00 0.00 0.00 57 1041.6
20260506151803 55 55 2.0 6.0 0.00 0.00 0.00 57 1041.6
20260506151115 55 353 1.0 6.0 0.00 0.00 0.00 56 1041.5
20260506150003 55 23 2.0 4.0 0.00 0.00 0.00 56 1041.6
20260506145403 55 337 2.0 6.0 0.00 0.00 0.00 56 1041.8
20260506144503 54 26 2.0 8.0 0.00 0.00 0.00 57 1041.7
20260506143603 55 51 2.0 7.0 0.00 0.00 0.00 59 1041.7
20260506142703 54 48 3.0 7.0 0.00 0.00 0.00 59 1041.5
20260506141803 55 50 2.0 6.0 0.00 0.00 0.00 58 1041.4
20260506140903 54 23 2.0 11.0 0.00 0.00 0.00 59 1041.5
20260506140003 55 12 3.0 8.0 0.00 0.00 0.00 60 1041.6
20260506135403 55 356 1.0 7.0 0.00 0.00 0.00 59 1041.7
20260506134503 55 21 2.0 8.0 0.00 0.00 0.00 59 1041.6
20260506133603 55 76 2.0 9.0 0.00 0.00 0.00 60 1041.7
20260506132703 55 31 1.0 9.0 0.00 0.00 0.00 60 1041.8
20260506131803 55 10 2.0 9.0 0.00 0.00 0.00 60 1041.7
20260506130903 56 7 4.0 9.0 0.00 0.00 0.00 59 1041.8
20260506130004 55 358 4.0 9.0 0.00 0.00 0.00 60 1041.8
20260506125403 54 342 2.0 7.0 0.00 0.00 0.00 61 1041.6
20260506124503 55 11 2.0 7.0 0.00 0.00 0.00 60 1041.5
20260506123603 53 14 2.0 11.0 0.00 0.00 0.00 62 1041.8
20260506122703 52 22 0.0 8.0 0.00 0.00 0.00 66 1041.7
20260506121803 52 54 2.0 11.0 0.00 0.00 0.00 66 1041.8
20260506120903 53 66 2.0 7.0 0.00 0.00 0.00 65 1041.8
20260506120003 53 26 1.0 7.0 0.00 0.00 0.00 64 1041.9
20260506115403 54 42 4.0 7.0 0.00 0.00 0.00 62 1042.0
20260506114503 55 38 4.0 8.0 0.00 0.00 0.00 60 1041.8
20260506113603 54 12 4.0 11.0 0.00 0.00 0.00 62 1042.0
20260506112703 54 340 3.0 7.0 0.00 0.00 0.00 61 1041.9
20260506111803 54 33 1.0 8.0 0.00 0.00 0.00 60 1041.7
20260506110903 54 320 3.0 9.0 0.00 0.00 0.00 61 1041.9
20260506110003 54 37 2.0 6.0 0.00 0.00 0.00 61 1041.9
20260506105403 53 26 2.0 6.0 0.00 0.00 0.00 63 1041.7
20260506104503 53 349 1.0 7.0 0.00 0.00 0.00 63 1041.7
20260506103603 53 3 4.0 9.0 0.00 0.00 0.00 61 1041.7
20260506102703 53 13 2.0 9.0 0.00 0.00 0.00 61 1041.8
20260506101803 53 291 2.0 7.0 0.00 0.00 0.00 59 1041.8
20260506100903 54 336 2.0 7.0 0.00 0.00 0.00 59 1041.7
20260506100003 53 22 0.0 4.0 0.00 0.00 0.00 60 1041.7
20260506095403 52 20 2.0 8.0 0.00 0.00 0.00 61 1041.8
20260506094503 52 4 2.0 7.0 0.00 0.00 0.00 61 1041.9
20260506093603 52 13 2.0 6.0 0.00 0.00 0.00 58 1041.6
20260506092703 51 6 2.0 7.0 0.00 0.00 0.00 62 1041.8
20260506091803 54 10 4.0 9.0 0.00 0.00 0.00 59 1041.8
20260506090903 52 1 3.0 8.0 0.00 0.00 0.00 61 1041.5
20260506090003 50 21 2.0 7.0 0.00 0.00 0.00 63 1041.7
20260506085613 49 10 2.0 7.0 0.00 0.00 0.00 67 1041.8
20260506084715 50 355 0.0 6.0 0.00 0.00 0.00 66 1041.5
20260506083812 50 49 2.0 7.0 0.00 0.00 0.00 66 1041.6
20260506082703 50 36 1.0 9.0 0.00 0.00 0.00 65 1041.4
20260506081804 51 11 3.0 9.0 0.00 0.00 0.00 63 1041.4
20260506080903 50 344 2.0 8.0 0.00 0.00 0.00 67 1041.5